1488196801.21,12762,11.13,73216.0,4.31,-33.09,-33.15,0,*76
1488196802.48,12763,11.13,73212.3,4.31,-32.97,-32.97,0,*7A
1488196803.69,12764,11.19,73216.8,4.33,-32.91,-32.91,0,*7F
1488196804.94,12765,11.19,73216.3,4.31,-33.09,-32.91,0,*7C
1488196806.2,12766,11.19,73216.0,4.33,-32.79,-32.79,0,*7D
1488196807.46,12767,11.19,73212.8,4.33,-32.63,-32.63,0,*7C
1488196808.71,12768,11.13,73214.0,4.33,-32.45,-32.45,0,*73
1488196809.97,12769,11.13,73212.5,4.33,-32.79,-32.79,0,*72
1488196811.19,12770,11.13,73214.0,4.35,-32.91,-32.91,0,*7C
1488196812.44,12771,11.19,73212.8,4.35,-32.19,-32.01,0,*74
1488196813.66,12772,11.13,73214.5,4.35,-32.13,-32.01,0,*7D
1488196814.94,12773,11.19,73216.3,4.39,-32.75,-32.75,0,*73
1488196816.17,12774,11.19,73216.0,4.41,-32.51,-32.63,0,*7A
1488196817.39,12775,11.19,73218.5,4.41,-32.63,-32.69,0,*70
1488196818.64,12776,11.13,73214.5,4.43,-32.23,-32.29,0,*71
1488196819.91,12777,11.19,73218.5,4.43,-31.85,-31.73,0,*73
1488196821.16,12778,11.13,73216.8,4.43,-32.07,-32.01,0,*73
1488196822.38,12779,11.13,73212.0,4.43,-33.83,-34.07,0,*7F
1488196823.61,12780,11.13,73214.0,4.41,-34.31,-34.47,0,*71
1488196824.83,12781,11.19,73214.5,4.41,-33.55,-33.73,0,*75
1488196826.09,12782,11.13,73212.0,4.43,-33.83,-34.01,0,*7D
1488196827.28,12783,11.13,73210.5,4.41,-33.95,-34.25,0,*7F
1488196828.5,12784,11.13,73212.5,4.43,-33.67,-33.83,0,*7C
1488196829.72,12785,11.13,73212.0,4.41,-34.07,-34.31,0,*70
1488196830.97,12786,11.13,73212.0,4.41,-32.45,-32.79,0,*79
1488196832.23,12787,11.13,73212.0,4.43,-32.07,-32.51,0,*76
1488196833.5,12788,11.13,73212.5,4.43,-32.29,-32.45,0,*70
1488196834.78,12789,11.19,73216.8,4.43,-32.63,-32.79,0,*70
1488196836.03,12790,11.13,73214.8,4.43,-32.57,-32.75,0,*73
1488196837.31,12791,11.19,73218.0,4.43,-32.63,-32.75,0,*75
1488196838.56,12792,11.19,73218.3,4.43,-33.15,-33.31,0,*77
1488196839.8,12793,11.19,73216.3,4.43,-33.55,-33.89,0,*71
1488196841.03,12794,11.19,73216.8,4.45,-32.57,-32.79,0,*7D
1488196842.25,12795,11.13,73212.3,4.45,-32.45,-32.57,0,*73
1488196843.51,12796,11.19,73216.8,4.45,-32.45,-32.75,0,*70
1488196844.74,12797,11.13,73216.0,4.45,-32.01,-32.07,0,*74
1488196846.02,12798,11.13,73218.5,4.47,-31.85,-31.85,0,*7F
1488196847.24,12799,11.19,73220.0,4.47,-34.13,-34.41,0,*79
1488196848.5,12800,11.13,73210.5,4.47,-34.59,-34.95,0,*71
1488196849.7,12801,11.13,73212.8,4.45,-34.41,-34.77,0,*77
1488196850.91,12802,11.13,73210.3,4.45,-34.47,-34.77,0,*72
1488196852.14,12803,11.19,73208.8,4.47,-34.59,-34.71,0,*78
1488196853.34,12804,11.13,73208.3,4.45,-34.41,-34.59,0,*7E
1488196854.55,12805,11.13,73208.8,4.45,-34.47,-34.59,0,*79
1488196855.78,12806,11.19,73212.3,4.45,-34.95,-35.01,0,*79
1488196857.06,12807,11.19,73212.0,4.43,-34.65,-34.83,0,*7A
1488196858.33,12808,11.13,73212.0,4.43,-34.65,-34.83,0,*75
1488196859.6,12809,11.13,73214.8,4.43,-33.89,-33.89,0,*7C
1488196860.86,12810,11.13,73210.3,4.43,-34.59,-34.65,0,*7B
1488196862.09,12811,11.19,73210.8,4.41,-35.01,-35.07,0,*71
1488196863.34,12812,11.13,73206.8,4.41,-35.41,-35.53,0,*77
1488196864.53,12813,11.19,73210.5,4.41,-34.89,-34.89,0,*75
1488196865.76,12814,11.13,73210.0,4.41,-34.31,-34.07,0,*77
1488196866.98,12815,11.19,73214.3,4.39,-33.83,-33.83,0,*7C
1488196868.22,12816,11.13,73214.5,4.39,-34.19,-33.95,0,*7C
1488196869.45,12817,11.13,73210.8,4.39,-33.67,-33.67,0,*7E
1488196870.73,12818,11.13,73214.5,4.39,-34.35,-34.53,0,*71
1488196871.96,12819,11.13,73210.8,4.39,-34.47,-34.47,0,*70
1488196873.19,12820,11.13,73212.5,4.39,-33.67,-33.67,0,*7A
1488196874.39,12821,11.19,73212.8,4.41,-33.21,-33.15,0,*73
1488196875.61,12822,11.19,73212.8,4.41,-33.43,-33.55,0,*70
1488196876.87,12823,11.19,73216.5,4.41,-33.73,-33.73,0,*76
1488196878.12,12824,11.13,73208.3,4.41,-35.07,-35.07,0,*71
1488196879.33,12825,11.13,73210.3,4.41,-34.47,-34.47,0,*70
1488196880.55,12826,11.19,73212.3,4.41,-33.43,-33.55,0,*74
1488196881.78,12827,11.19,73214.3,4.41,-33.43,-33.37,0,*71
1488196883.03,12828,11.13,73210.3,4.41,-34.31,-34.31,0,*7D
1488196884.26,12829,11.19,73208.5,4.39,-34.59,-34.59,0,*73
1488196885.47,12830,11.19,73208.8,4.39,-35.59,-35.59,0,*7B
1488196886.7,12831,11.13,73204.3,4.39,-34.77,-34.77,0,*7A
1488196887.94,12832,11.13,73208.5,4.35,-35.89,-35.89,0,*75
1488196889.18,12833,11.19,73214.5,4.35,-35.41,-35.59,0,*7D
1488196890.41,12834,11.13,73218.8,4.33,-34.41,-34.53,0,*76
1488196891.65,12835,11.13,73214.3,4.33,-34.95,-35.01,0,*78
1488196892.87,12836,11.13,73212.5,4.33,-35.65,-35.71,0,*72
1488196894.11,12837,11.19,73208.8,4.31,-35.71,-35.89,0,*73
1488196895.34,12838,11.19,73210.0,4.31,-35.77,-36.07,0,*7F
1488196896.59,12839,11.19,73212.8,4.31,-35.77,-36.13,0,*7B
1488196897.83,12840,11.19,73212.3,4.29,-35.95,-36.01,0,*73
1488196899.07,12841,11.19,73212.3,4.27,-35.41,-35.65,0,*74
1488196900.28,12842,11.19,73208.5,4.27,-35.59,-35.65,0,*7E
1488196901.54,12843,11.13,73208.5,4.25,-35.77,-35.83,0,*79
1488196902.76,12844,11.19,73202.8,4.23,-35.35,-35.47,0,*76
1488196903.99,12845,11.13,73202.8,4.23,-34.95,-35.01,0,*7E
1488196905.22,12846,11.13,73200.0,4.23,-34.53,-34.59,0,*7B
1488196906.42,12847,11.13,73200.5,4.23,-35.01,-35.17,0,*77
1488196907.71,12848,11.19,73200.8,4.21,-35.95,-36.25,0,*75
1488196908.95,12849,11.13,73200.8,4.21,-36.67,-36.79,0,*73
1488196910.16,12850,11.19,73204.5,4.19,-36.31,-36.55,0,*7D
1488196911.4,12851,11.19,73204.8,4.13,-36.55,-36.55,0,*74
1488196912.67,12852,11.13,73202.3,4.17,-36.13,-36.49,0,*7C
1488196913.93,12853,11.13,73196.5,4.13,-35.77,-35.83,0,*7D
1488196915.13,12854,11.19,73200.5,4.11,-35.13,-35.29,0,*7A
1488196916.38,12855,11.19,73204.3,4.11,-35.65,-35.83,0,*7A
1488196917.63,12856,11.19,73208.8,4.09,-35.35,-35.47,0,*7D
1488196918.87,12857,11.19,73206.5,4.09,-34.77,-35.01,0,*79
1488196920.06,12858,11.19,73208.3,4.11,-34.41,-34.41,0,*7F
1488196921.32,12859,11.19,73208.0,4.09,-34.01,-34.07,0,*71
1488196922.57,12860,11.13,73208.3,4.11,-33.43,-33.49,0,*7E
1488196923.82,12861,11.19,73208.3,4.11,-33.27,-33.43,0,*77
1488196925.1,12862,11.19,73208.3,4.13,-34.19,-34.19,0,*74
1488196926.38,12863,11.19,73214.3,4.13,-33.43,-33.43,0,*75
1488196927.62,12864,11.19,73212.3,4.13,-33.61,-33.55,0,*75
1488196928.85,12865,11.19,73212.0,4.13,-33.37,-33.37,0,*73
1488196930.1,12866,11.19,73212.0,4.17,-33.15,-33.31,0,*72
1488196931.38,12867,11.13,73208.8,4.17,-33.77,-33.89,0,*74
1488196932.63,12868,11.19,73210.0,4.19,-33.77,-33.61,0,*73
1488196933.91,12869,11.19,73208.3,4.21,-33.31,-33.43,0,*7B
1488196935.12,12870,11.19,73212.5,4.19,-33.89,-33.95,0,*70
1488196936.37,12871,11.19,73212.8,4.21,-32.97,-33.15,0,*7C
1488196937.65,12872,11.19,73214.3,4.21,-32.75,-32.75,0,*74
1488196938.93,12873,11.19,73212.8,4.21,-32.63,-32.63,0,*75
1488196940.18,12874,11.19,73212.0,4.25,-33.37,-33.27,0,*77
1488196941.43,12875,11.19,73214.3,4.23,-32.97,-32.97,0,*71
1488196942.71,12876,11.19,73212.8,4.25,-32.75,-32.85,0,*7B
1488196943.92,12877,11.19,73214.3,4.25,-32.91,-33.03,0,*7F
1488196945.16,12878,11.19,73214.0,4.27,-33.61,-33.61,0,*78
1488196946.36,12879,11.19,73210.3,4.27,-33.21,-33.21,0,*79
1488196947.59,12880,11.19,73210.8,4.27,-32.69,-32.75,0,*72
1488196948.82,12881,11.19,73214.8,4.29,-32.85,-33.21,0,*7F
1488196950.07,12882,11.19,73212.5,4.29,-33.43,-33.61,0,*73
1488196951.27,12883,11.19,73208.3,4.29,-34.07,-34.25,0,*72
1488196952.47,12884,11.13,73210.3,4.29,-34.07,-34.25,0,*75
1488196953.67,12885,11.19,73210.0,4.27,-34.41,-34.47,0,*7C
1488196954.88,12886,11.19,73208.5,4.27,-33.95,-34.19,0,*7A
1488196956.08,12887,11.19,73212.0,4.27,-34.47,-34.71,0,*7D
1488196957.28,12888,11.19,73212.8,4.29,-33.95,-34.13,0,*70
1488196958.53,12889,11.19,73214.3,4.27,-34.65,-34.95,0,*79
1488196959.78,12890,11.19,73210.5,4.27,-34.31,-34.53,0,*7A
1488196960.98,12891,11.19,73212.0,4.29,-33.83,-33.95,0,*76
1488196962.24,12892,11.19,73210.5,4.29,-33.43,-33.73,0,*71
1488196963.46,12893,11.13,73206.3,4.27,-33.09,-33.21,0,*77
1488196964.68,12894,11.19,73210.3,4.27,-33.37,-33.61,0,*79
1488196965.91,12895,11.19,73206.3,4.29,-34.41,-34.65,0,*73
1488196967.1,12896,11.19,73206.8,4.27,-35.89,-36.19,0,*72
1488196968.33,12897,11.19,73206.3,4.27,-34.47,-34.53,0,*7C
1488196969.58,12898,11.19,73206.0,4.27,-34.01,-34.19,0,*7F
1488196970.82,12899,11.19,73210.5,4.25,-33.83,-34.19,0,*71
1488196972.09,12900,11.19,73212.0,4.25,-34.01,-34.19,0,*7D
1488196973.36,12901,11.19,73206.3,4.25,-34.35,-34.53,0,*75
1488196974.61,12902,11.19,73202.0,4.25,-35.13,-35.41,0,*71
1488196975.84,12903,11.13,73204.8,4.23,-34.53,-34.77,0,*77
1488196977.11,12904,11.13,73208.5,4.25,-34.65,-35.07,0,*75
1488196978.31,12905,11.19,73208.3,4.23,-35.47,-35.71,0,*72
1488196979.54,12906,11.19,73206.5,4.23,-36.07,-36.25,0,*74
1488196980.75,12907,11.19,73202.5,4.19,-35.77,-35.89,0,*7D
1488196982.0,12908,11.19,73204.5,4.19,-35.23,-35.53,0,*74
1488196983.22,12909,11.19,73200.0,4.19,-34.77,-34.83,0,*79
1488196984.45,12910,11.19,73208.8,4.19,-34.53,-34.59,0,*70
1488196985.67,12911,11.19,73212.3,4.19,-35.17,-35.41,0,*78
1488196986.92,12912,11.19,73218.3,4.19,-35.23,-35.41,0,*7C
1488196988.15,12913,11.19,73218.0,4.13,-35.59,-35.77,0,*7F
1488196989.42,12914,11.19,73212.8,4.17,-34.59,-34.65,0,*7F
1488196990.64,12915,11.19,73210.8,4.13,-35.29,-35.59,0,*72
1488196991.9,12916,11.19,73204.0,4.13,-35.95,-36.01,0,*78
1488196993.13,12917,11.19,73204.5,4.11,-36.01,-36.25,0,*73
1488196994.39,12918,11.19,73200.5,4.09,-36.25,-36.43,0,*73
1488196995.65,12919,11.19,73202.3,4.09,-36.25,-36.43,0,*72
1488196996.88,12920,11.19,73204.8,4.09,-35.71,-35.71,0,*78
1488196998.12,12921,11.19,73210.5,4.05,-35.77,-35.89,0,*74
1488196999.36,12922,11.19,73208.8,4.05,-35.71,-35.89,0,*71
1488197000.58,12923,11.19,73214.5,4.05,-35.89,-36.07,0,*72
1488197001.81,12924,11.19,73210.5,4.05,-35.89,-36.07,0,*75
1488197003.04,12925,11.19,73208.3,4.03,-35.77,-35.83,0,*7C
1488197004.28,12926,11.19,73206.5,4.03,-35.95,-36.01,0,*7A
1488197005.54,12927,11.19,73206.8,4.01,-36.07,-36.25,0,*77
1488197006.76,12928,11.19,73202.5,4.01,-36.07,-36.19,0,*77
1488197008.02,12929,11.19,73202.8,3.97,-36.07,-36.13,0,*74
1488197009.27,12930,11.19,73206.0,3.97,-35.95,-36.07,0,*71
1488197010.56,12931,11.13,73204.0,3.97,-35.95,-36.13,0,*75
1488197011.81,12932,11.19,73200.5,3.97,-35.95,-36.07,0,*73
1488197013.08,12933,11.19,73202.8,3.95,-36.25,-36.37,0,*7B
1488197014.3,12934,11.19,73198.0,3.93,-36.43,-36.61,0,*79
1488197015.55,12935,11.19,73200.5,3.93,-35.83,-36.13,0,*72
1488197016.79,12936,11.19,73196.5,3.93,-36.79,-36.91,0,*7D
1488197018.02,12937,11.19,73194.5,3.89,-37.15,-37.21,0,*76
1488197019.23,12938,11.19,73200.8,3.85,-36.55,-36.55,0,*72
1488197020.43,12939,11.19,73202.5,3.85,-36.55,-36.55,0,*73
1488197021.67,12940,11.19,73200.0,3.85,-35.77,-35.95,0,*71
1488197022.89,12941,11.19,73204.8,3.83,-35.89,-36.07,0,*7F
1488197024.16,12942,11.19,73202.3,3.83,-36.13,-36.13,0,*79
1488197025.39,12943,11.19,73200.3,3.81,-36.55,-36.61,0,*7D
1488197026.59,12944,11.19,73202.5,3.81,-36.55,-36.73,0,*79
1488197027.84,12945,11.19,73208.3,3.79,-36.55,-36.79,0,*75
1488197029.09,12946,11.19,73206.8,3.75,-36.61,-36.67,0,*72
1488197030.28,12947,11.19,73206.0,3.77,-36.19,-36.19,0,*77
1488197031.53,12948,11.19,73206.3,3.75,-35.95,-36.07,0,*72
1488197032.76,12949,11.19,73208.5,3.75,-35.29,-35.29,0,*7B
1488197034.01,12950,11.19,73212.0,3.75,-36.43,-36.61,0,*73
1488197035.26,12951,11.19,73206.8,3.75,-35.71,-35.95,0,*78
1488197036.51,12952,11.19,73210.0,3.75,-35.35,-35.47,0,*74
1488197037.71,12953,11.19,73210.8,3.73,-35.47,-35.59,0,*79
1488197038.92,12954,11.19,73208.3,3.73,-35.29,-35.29,0,*71
1488197040.13,12955,11.19,73210.8,3.73,-35.29,-35.47,0,*78
1488197041.36,12956,11.19,73208.3,3.73,-34.59,-34.83,0,*74
1488197042.61,12957,11.19,73208.5,3.71,-34.65,-34.71,0,*75
1488197043.84,12958,11.19,73208.5,3.73,-33.49,-33.67,0,*71
1488197045.1,12959,11.19,73208.5,3.73,-33.31,-33.49,0,*73
1488197046.3,12960,11.19,73208.8,3.77,-33.21,-33.37,0,*75
1488197047.5,12961,11.19,73210.3,3.77,-33.03,-32.91,0,*79
1488197048.72,12962,11.19,73208.0,3.79,-33.03,-33.03,0,*7E
1488197049.94,12963,11.19,73208.8,3.79,-32.39,-32.57,0,*77
1488197051.17,12964,11.19,73210.3,3.81,-32.63,-32.69,0,*75
1488197052.4,12965,11.19,73210.8,3.81,-33.09,-33.37,0,*73
1488197053.65,12966,11.19,73208.5,3.81,-33.61,-33.77,0,*7A
1488197054.9,12967,11.19,73212.0,3.81,-34.83,-35.07,0,*71
1488197056.15,12968,11.19,73212.0,3.83,-34.59,-34.83,0,*76
1488197057.37,12969,11.19,73214.0,3.83,-35.01,-35.17,0,*77
1488197058.6,12970,11.19,73210.3,3.81,-35.65,-36.01,0,*7B
1488197059.82,12971,11.19,73208.5,3.81,-34.07,-34.31,0,*7E
1488197061.06,12972,11.19,73210.8,3.81,-33.43,-33.61,0,*78
1488197062.29,12973,11.19,73208.0,3.81,-32.45,-32.51,0,*7C
1488197063.49,12974,11.19,73210.8,3.81,-33.21,-33.55,0,*7D
1488197064.75,12975,11.19,73208.8,3.85,-34.65,-34.95,0,*74
1488197065.97,12976,11.19,73210.5,3.85,-34.65,-35.17,0,*7C
1488197067.25,12977,11.19,73210.5,3.83,-35.35,-35.53,0,*7F
1488197068.5,12978,11.19,73206.8,3.83,-36.07,-36.25,0,*70
1488197069.73,12979,11.19,73206.8,3.81,-35.83,-36.01,0,*7A
1488197070.96,12980,11.19,73208.5,3.79,-35.13,-35.29,0,*7B
1488197072.21,12981,11.19,73208.3,3.79,-34.89,-35.07,0,*74
1488197073.45,12982,11.19,73210.0,3.77,-34.19,-34.35,0,*70
1488197074.7,12983,11.19,73210.3,3.77,-33.31,-33.49,0,*70
1488197075.93,12984,11.19,73214.5,3.79,-32.39,-32.69,0,*73
1488197077.18,12985,11.19,73208.5,3.79,-31.91,-32.01,0,*7D
1488197078.45,12986,11.19,73208.3,3.83,-31.91,-32.07,0,*7D
1488197079.67,12987,11.19,73206.3,3.83,-31.79,-31.79,0,*70
1488197080.92,12988,11.19,73210.5,3.85,-32.29,-32.45,0,*73
1488197082.14,12989,11.19,73206.5,3.85,-33.15,-33.31,0,*7E
1488197083.39,12990,11.19,73200.0,3.87,-33.09,-33.15,0,*7F
1488197084.65,12991,11.19,73206.8,3.89,-32.75,-32.75,0,*7D
1488197085.87,12992,11.19,73202.5,3.89,-33.09,-33.15,0,*73
1488197087.1,12993,11.19,73200.5,3.89,-33.15,-33.31,0,*79
1488197088.32,12994,11.19,73200.3,3.89,-33.09,-33.15,0,*75
1488197089.57,12995,11.19,73202.3,3.89,-33.61,-33.77,0,*7E
1488197090.77,12996,11.19,73196.3,3.89,-33.83,-33.95,0,*7D
1488197091.97,12997,11.19,73196.3,3.89,-33.83,-33.83,0,*7B
1488197093.17,12998,11.19,73204.0,3.89,-33.67,-33.83,0,*7E
1488197094.43,12999,11.19,73204.3,3.89,-33.09,-33.27,0,*79
1488197095.69,13000,11.19,73202.0,3.89,-34.01,-34.01,0,*7D
1488197096.92,13001,11.19,73200.8,3.89,-33.49,-33.67,0,*70
1488197098.17,13002,11.19,73194.8,3.89,-35.07,-35.35,0,*7E
1488197099.43,13003,11.19,73192.8,3.87,-34.77,-35.07,0,*76
1488197100.63,13004,11.19,73190.8,3.89,-34.89,-35.13,0,*7B
1488197101.87,13005,11.19,73188.0,3.87,-35.23,-35.47,0,*74
1488197103.11,13006,11.19,73184.5,3.85,-34.77,-34.95,0,*7B
1488197104.33,13007,11.19,73188.5,3.85,-34.31,-34.59,0,*78
1488197105.55,13008,11.19,73184.8,3.85,-35.13,-35.35,0,*7D
1488197106.81,13009,11.19,73188.8,3.85,-34.65,-34.95,0,*77
1488197108.03,13010,11.19,73190.8,3.83,-35.17,-35.59,0,*7C
1488197109.26,13011,11.19,73194.3,3.81,-34.83,-35.01,0,*7E
1488197110.54,13012,11.19,73190.3,3.79,-35.07,-35.23,0,*77
1488197111.76,13013,11.19,73188.3,3.81,-35.01,-35.23,0,*77
1488197112.99,13014,11.19,73186.0,3.79,-34.59,-34.89,0,*7A
1488197114.24,13015,11.19,73190.3,3.79,-33.03,-33.31,0,*77
1488197115.48,13016,11.19,73184.8,3.79,-33.61,-33.83,0,*79
1488197116.73,13017,11.19,73186.8,3.81,-33.77,-33.89,0,*72
1488197117.93,13018,11.19,73190.3,3.81,-33.21,-33.55,0,*7F
1488197119.15,13019,11.19,73192.0,3.79,-34.25,-34.71,0,*7B
1488197120.43,13020,11.19,73192.8,3.79,-35.23,-35.53,0,*77
1488197121.69,13021,11.19,73192.0,3.79,-34.59,-34.95,0,*71
1488197122.97,13022,11.19,73198.0,3.79,-33.77,-34.01,0,*74
1488197124.19,13023,11.19,73196.3,3.77,-34.89,-35.07,0,*7A
1488197125.43,13024,11.19,73194.8,3.77,-35.23,-35.65,0,*78
1488197126.64,13025,11.19,73192.5,3.77,-35.47,-35.89,0,*79
1488197127.87,13026,11.19,73198.8,3.77,-33.43,-33.67,0,*7E
1488197129.09,13027,11.19,73198.3,3.77,-32.57,-32.85,0,*76
1488197130.32,13028,11.19,73200.0,3.77,-33.03,-33.43,0,*72
1488197131.55,13029,11.19,73196.8,3.79,-34.13,-34.59,0,*77
1488197132.8,13030,11.19,73194.8,3.79,-34.13,-34.53,0,*75
1488197134.08,13031,11.19,73194.5,3.79,-33.09,-33.43,0,*7E
1488197135.31,13032,11.19,73198.0,3.81,-32.69,-33.09,0,*73
1488197136.53,13033,11.19,73196.8,3.81,-33.43,-33.95,0,*7E
1488197137.75,13034,11.19,73198.0,3.81,-33.43,-33.95,0,*79
1488197138.98,13035,11.19,73202.0,3.81,-34.13,-34.65,0,*72
1488197140.21,13036,11.19,73202.5,3.81,-34.71,-35.23,0,*76
1488197141.45,13037,11.19,73196.8,3.81,-34.53,-35.01,0,*77
1488197142.69,13038,11.19,73198.3,3.79,-35.13,-35.65,0,*78
1488197143.97,13039,11.19,73194.3,3.79,-35.65,-36.25,0,*7F
1488197145.22,13040,11.19,73196.8,3.79,-35.41,-35.89,0,*72
1488197146.45,13041,11.19,73194.8,3.79,-35.47,-36.01,0,*76
1488197147.65,13042,11.19,73196.5,3.77,-33.67,-34.13,0,*7E
1488197148.88,13043,11.19,73196.3,3.77,-34.41,-34.95,0,*72
1488197150.1,13044,11.19,73196.8,3.75,-34.25,-34.59,0,*75
1488197151.35,13045,11.19,73196.5,3.79,-34.19,-34.59,0,*77
1488197152.57,13046,11.19,73198.0,3.79,-33.67,-33.95,0,*7D
1488197153.81,13047,11.19,73200.3,3.79,-33.61,-33.95,0,*7A
1488197155.04,13048,11.19,73194.0,3.79,-35.47,-35.71,0,*7B
1488197156.29,13049,11.19,73196.8,3.79,-34.71,-34.95,0,*75
1488197157.55,13050,11.19,73200.3,3.79,-35.23,-35.47,0,*75
1488197158.78,13051,11.19,73196.3,3.79,-34.59,-34.77,0,*7A
1488197160.0,13052,11.19,73200.5,3.79,-33.67,-33.83,0,*7F
1488197161.25,13053,11.19,73206.5,3.81,-33.61,-33.77,0,*74
1488197162.44,13054,11.19,73200.3,3.81,-33.95,-34.07,0,*78
1488197163.69,13055,11.19,73206.5,3.81,-34.31,-34.35,0,*71
1488197164.91,13056,11.19,73202.5,3.79,-33.67,-33.95,0,*7C
1488197166.14,13057,11.19,73206.8,3.81,-33.37,-33.73,0,*77
1488197167.33,13058,11.19,73204.8,3.81,-33.95,-34.07,0,*74
1488197168.53,13059,11.19,73204.3,3.81,-33.95,-34.07,0,*75
1488197169.75,13060,11.19,73206.0,3.81,-33.89,-34.07,0,*72
1488197170.97,13061,11.19,73204.0,3.85,-33.31,-33.55,0,*74
1488197172.19,13062,11.19,73208.5,3.85,-33.15,-33.49,0,*7C
1488197173.41,13063,11.19,73208.0,3.85,-34.01,-34.07,0,*72
1488197174.66,13064,11.19,73206.3,3.89,-33.49,-33.61,0,*75
1488197175.91,13065,11.19,73204.5,3.87,-33.15,-33.31,0,*76
1488197177.13,13066,11.19,73202.5,3.89,-33.77,-33.95,0,*71
1488197178.32,13067,11.19,73200.8,3.89,-34.25,-34.41,0,*7E
1488197179.52,13068,11.19,73200.8,3.89,-34.25,-34.59,0,*78
1488197180.77,13069,11.19,73204.5,3.87,-34.07,-34.19,0,*73
1488197181.97,13070,11.19,73200.8,3.89,-33.67,-33.67,0,*7A
1488197183.22,13071,11.19,73200.3,3.89,-32.97,-33.09,0,*7D
1488197184.45,13072,11.19,73202.0,3.93,-32.85,-32.69,0,*71
1488197185.68,13073,11.19,73202.5,3.93,-32.69,-32.63,0,*78
1488197186.95,13074,11.19,73200.3,3.95,-32.63,-32.63,0,*73
1488197188.19,13075,11.19,73204.3,3.95,-32.75,-32.57,0,*72
1488197189.42,13076,11.19,73202.0,3.95,-32.39,-32.39,0,*71
1488197190.65,13077,11.19,73204.0,3.99,-32.75,-32.69,0,*71
1488197191.87,13078,11.19,73204.3,3.99,-32.57,-32.51,0,*75
1488197193.07,13079,11.19,73202.5,3.99,-32.51,-32.57,0,*74
1488197194.29,13080,11.19,73202.3,4.01,-32.35,-32.23,0,*75
1488197195.51,13081,11.19,73200.0,4.03,-33.09,-33.21,0,*7B
1488197196.76,13082,11.19,73202.0,4.03,-34.01,-34.19,0,*7B
1488197198.01,13083,11.19,73200.0,4.01,-33.43,-33.15,0,*72
1488197199.29,13084,11.19,73200.3,4.01,-33.61,-33.49,0,*7C
1488197200.54,13085,11.19,73200.0,4.01,-33.83,-33.89,0,*7D
1488197201.74,13086,11.19,73202.5,4.03,-32.91,-33.03,0,*7C
1488197202.99,13087,11.19,73202.0,4.03,-33.73,-33.73,0,*77
1488197204.21,13088,11.19,73204.3,4.03,-33.77,-33.83,0,*73
1488197205.41,13089,11.19,73200.0,4.03,-33.83,-33.95,0,*7E
1488197206.64,13090,11.19,73200.8,4.03,-33.95,-34.01,0,*7B
1488197207.86,13091,11.19,73204.0,4.03,-33.27,-33.37,0,*71
1488197209.07,13092,11.19,73196.8,4.03,-33.37,-33.37,0,*73
1488197210.31,13093,11.19,73198.8,4.03,-33.61,-33.77,0,*75
1488197211.56,13094,11.19,73202.8,4.05,-32.97,-33.15,0,*78
1488197212.84,13095,11.19,73206.5,4.05,-32.63,-32.63,0,*72
1488197214.1,13096,11.19,73204.0,4.07,-31.91,-31.95,0,*77
1488197215.35,13097,11.19,73204.3,4.05,-33.21,-33.31,0,*71
1488197216.57,13098,11.19,73206.0,4.07,-32.45,-32.57,0,*7E
1488197217.8,13099,11.19,73204.5,4.07,-31.95,-32.13,0,*71
1488197219.08,13100,11.19,73200.5,4.09,-31.73,-31.85,0,*7A
1488197220.31,13101,11.19,73204.0,4.11,-32.19,-32.23,0,*72
1488197221.51,13102,11.19,73204.3,4.11,-32.39,-32.39,0,*78
1488197222.74,13103,11.19,73200.5,4.17,-32.13,-32.13,0,*7F
1488197223.99,13104,11.19,73206.0,4.17,-32.79,-33.55,0,*77
1488197225.24,13105,11.19,73206.5,4.13,-33.67,-33.77,0,*7C
1488197226.5,13106,11.19,73210.0,4.17,-32.79,-33.03,0,*76
1488197227.73,13107,11.19,73204.0,4.13,-33.21,-33.37,0,*78
1488197229.01,13108,11.19,73206.5,4.17,-32.85,-33.09,0,*71
1488197230.29,13109,11.19,73212.5,4.17,-32.85,-32.97,0,*76
1488197231.51,13110,11.19,73208.0,4.17,-33.03,-33.15,0,*7A
1488197232.76,13111,11.19,73206.8,4.13,-33.61,-33.83,0,*74
1488197234.04,13112,11.19,73204.8,4.17,-33.31,-33.31,0,*7F
1488197235.29,13113,11.19,73206.8,4.17,-32.97,-33.15,0,*75
1488197236.54,13114,11.19,73208.0,4.17,-32.97,-33.15,0,*72
1488197237.77,13115,11.19,73210.5,4.17,-33.03,-33.21,0,*78
1488197239.04,13116,11.19,73210.8,4.21,-33.31,-33.49,0,*71
1488197240.27,13117,11.19,73210.5,4.19,-32.97,-33.37,0,*7F
1488197241.52,13118,11.19,73212.8,4.19,-33.31,-33.49,0,*74
1488197242.77,13119,11.19,73208.5,4.19,-34.31,-34.65,0,*7B
1488197244.06,13120,11.19,73214.0,4.17,-34.31,-34.65,0,*7F
1488197245.29,13121,11.19,73206.0,4.17,-34.47,-34.77,0,*7C
1488197246.52,13122,11.19,73208.8,4.13,-34.71,-34.89,0,*7F
1488197247.78,13123,11.19,73206.5,4.17,-34.31,-34.77,0,*7F
1488197249.06,13124,11.19,73212.3,4.13,-34.65,-34.95,0,*71
1488197250.3,13125,11.19,73208.8,4.09,-34.59,-34.89,0,*79
1488197251.55,13126,11.19,73208.3,4.09,-33.49,-33.67,0,*7B
1488197252.8,13127,11.19,73208.3,4.11,-32.97,-33.31,0,*72
1488197254.09,13128,11.19,73206.5,4.09,-33.09,-33.43,0,*77
1488197255.32,13129,11.19,73210.3,4.11,-32.91,-33.27,0,*7D
1488197256.54,13130,11.19,73212.0,4.13,-32.35,-32.51,0,*79
1488197257.82,13131,11.19,73210.8,4.17,-31.73,-31.91,0,*72
1488197259.05,13132,11.19,73212.3,4.13,-32.01,-32.13,0,*7A
1488197260.28,13133,11.19,73208.8,4.17,-32.13,-32.23,0,*7F
1488197261.53,13134,11.19,73210.0,4.17,-31.95,-32.23,0,*75
1488197262.79,13135,11.19,73206.3,4.21,-32.01,-32.07,0,*79
1488197264.01,13136,11.19,73208.3,4.19,-33.55,-33.49,0,*7A
1488197265.29,13137,11.19,73202.5,4.21,-34.01,-34.35,0,*7A
1488197266.53,13138,11.19,73206.0,4.21,-33.67,-34.19,0,*7C
1488197267.78,13139,11.19,73208.0,4.21,-34.01,-34.25,0,*75
1488197269.0,13140,11.19,73206.5,4.19,-32.85,-33.15,0,*7E
1488197270.22,13141,11.19,73206.0,4.21,-32.35,-32.39,0,*70
1488197271.44,13142,11.19,73202.8,4.21,-32.35,-32.35,0,*7F
1488197272.7,13143,11.19,73202.0,4.21,-32.57,-32.79,0,*72
1488197273.89,13144,11.19,73208.8,4.23,-32.39,-32.57,0,*73
1488197275.14,13145,11.19,73210.3,4.23,-32.97,-33.27,0,*70
1488197276.36,13146,11.19,73208.0,4.23,-33.15,-33.27,0,*78
1488197277.62,13147,11.19,73202.5,4.23,-32.79,-33.09,0,*7E
1488197278.84,13148,11.19,73202.3,4.23,-32.63,-32.91,0,*7A
1488197280.1,13149,11.19,73206.3,4.23,-33.09,-33.27,0,*7A
1488197281.35,13150,11.19,73208.8,4.25,-33.37,-33.49,0,*71
1488197282.59,13151,11.19,73208.8,4.25,-33.09,-33.21,0,*73
1488197283.84,13152,11.19,73210.8,4.25,-33.49,-33.95,0,*7B
1488197285.09,13153,11.19,73208.3,4.25,-33.37,-33.61,0,*78
1488197286.34,13154,11.19,73208.0,4.25,-33.21,-33.43,0,*78
1488197287.59,13155,11.19,73210.5,4.25,-32.75,-32.91,0,*77
1488197288.84,13156,11.19,73208.5,4.25,-32.91,-33.27,0,*72
1488197290.09,13157,11.19,73210.5,4.25,-33.67,-34.01,0,*78
1488197291.33,13158,11.19,73206.0,4.25,-33.61,-33.83,0,*7C
1488197292.57,13159,11.19,73210.3,4.25,-33.61,-33.95,0,*7A
1488197293.82,13160,11.19,73208.5,4.25,-33.37,-33.49,0,*72
1488197295.06,13161,11.19,73204.3,4.25,-33.61,-33.95,0,*71
1488197296.33,13162,11.19,73210.0,4.25,-33.61,-34.01,0,*78
1488197297.57,13163,11.19,73210.8,4.27,-34.01,-34.19,0,*73
1488197298.83,13164,11.19,73210.5,4.25,-32.51,-32.75,0,*79
1488197300.05,13165,11.19,73214.0,4.27,-32.19,-32.35,0,*72
1488197301.3,13166,11.19,73208.5,4.29,-32.63,-32.79,0,*7A
1488197302.51,13167,11.19,73208.3,4.29,-32.69,-33.03,0,*7D
1488197303.77,13168,11.19,73210.8,4.29,-32.63,-32.79,0,*74